Regional Weather Roundup
Issued by NWS

Home | Current Version | Previous Version | Graphics & Text | Print | Product List | Glossary On
Versions: 1 2 3 4 5 6 7 8 9 10 11 12 13 14 15 16 17 18 19 20 21 22 23 24 25 26 27 28 29 30 31 32 33 34 35 36 37 38 39 40 41 42 43 44 45 46 47 48 49 50
000
ASUS43 KLSX 040107
RWRMO

WEATHER SUMMARY FOR MISSOURI
NATIONAL WEATHER SERVICE SPRINGFIELD MO
800 PM CDT FRI JUL 03 2015

NOTE: "FAIR" INDICATES FEW OR NO CLOUDS BELOW 12,000 FEET WITH NO
       SIGNIFICANT WEATHER AND/OR OBSTRUCTIONS TO VISIBILITY.
       CURRENT SKY AND/OR WEATHER CONDITIONS ARE NOT AVAILABLE FOR
       CHILLICOTHE AND FARMINGTON.

MOZ001>031-035>038-043-044-053-054-040200-
...NORTHERN AND WESTERN MISSOURI...

CITY           SKY/WX    TMP DP  RH WIND       PRES   REMARKS
KANSAS CTY INT CLEAR     75  59  57 NE6       29.94S
KANSAS C DTWN  CLEAR     76  59  55 NE5       29.92S
LEE`S SUMMIT   CLEAR     76  58  53 NE6       29.94R
ST JOSEPH      CLEAR     77  58  51 NE6       29.94S
CHILLICOTHE      N/A     75  63  66 CALM      29.94S
KIRKSVILLE     CLEAR     73  61  65 N5        29.94S

$$
MOZ066>068-077>081-088>096-101>105-040200-
...SOUTHWEST MISSOURI...

CITY           SKY/WX    TMP DP  RH WIND       PRES   REMARKS
SPRINGFIELD    PTCLDY    76  66  71 E6        29.91R
JOPLIN         MOCLDY    78  70  76 CALM      29.91R

$$
MOZ032>034-039>042-045>050-055>058-069>072-040200-
...CENTRAL MISSOURI...

CITY           SKY/WX    TMP DP  RH WIND       PRES   REMARKS
COLUMBIA       CLEAR     75  61  61 N6        29.92S
ROLLA          CLEAR     74  64  71 N3        29.91R
SEDALIA        CLEAR     75  64  68 N3        29.93S
WHITEMAN AFB   CLEAR     74  66  75 NE5       29.91S
WARRENSBURG    CLEAR     73  61  64 CALM      29.92S
OSAGE BEACH    CLEAR     72  64  78 CALM      29.91S

$$
MOZ051-052-059>065-040200-
...EAST CENTRAL MISSOURI...

CITY           SKY/WX    TMP DP  RH WIND       PRES   REMARKS
ST LOUIS INTL  PTCLDY    79  64  60 N7        29.90R
SPIRIT OF STL  CLEAR     77  64  64 N3        29.89R
ST CHARLES     CLEAR     76  67  73 N6        29.88S

$$
MOZ072>076-082>087-097>100-106>115-040200-
...SOUTH CENTRAL AND SOUTHEAST MISSOURI...

CITY           SKY/WX    TMP DP  RH WIND       PRES   REMARKS
CAPE GIRARDEAU LGT RAIN  73  69  87 SE6       29.88S
FARMINGTON     CLEAR     75  64  69 N3        29.94R
POPLAR BLUFF   MOCLDY    76  72  87 E7        29.86R
WEST PLAINS    PTCLDY    75  68  78 N3        29.92R

$$


USA.gov is the U.S. government's official web portal to all federal, state and local government web resources and services.